STARLINK-34919, 65802

Orbit data source: Space-Track

STARLINK-34919, 65802 is a payload satellite owned by SpaceX/Seattle (US) in SSO that was launched on Fri, 26 Sep 2025 UTC via an FALCON 9 launch vehicle from the Air Force Western Test Range (AFWTR). Payload-class satellites include a variety of spacecraft equipped with specific instruments for various scientific and technological missions. These include communications satellites like Starlink; space stations such as the ISS; scientific satellites like the Hubble; Earth observation satellites from companies like Planet Labs, Umbra, and HawkEye 360; GPS; miniature CubeSats for education and research; and military/defense satellites.

Loading next visibility...
Identifier
65802, 2025-218M
Orbit
SSO
Country
Flag of USUS
Related business
Manufacturer
SpaceX/Seattle
Mission
Operational Commercial Communications
Bus & Motor
STARLINK V2MO, Unknown motor
Mass
575 kg wet, ~530 kg dry
Launch date (UTC)
2025-09-26 (2 months ago)
Launch vehicle
FALCON 9
Launch site
Air Force Western Test Range (AFWTR)
Object type
Payload
Rocket body
Debris
Shape & HBR
Box + 2 Pan, 17.7 m
Radar Cross Section
36.964 m²

Expand to show TLE details & history
Last TLE update: 15 hours ago

TLE from 15 hours ago
0 STARLINK-34919
1 65802U 25218M   25340.60032562  .00025339  00000-0  17535-2 0  9992
2 65802  97.6019 201.2157 0002407 103.1948 256.9547 15.05660958 10961
Epoch: 2025-12-06T14:24Z
TLE epoch observation values (Epoch: 2025-12-06T14:24:28.133Z)
Latitude
-0.00007°
Longitude
-90.52725°
Altitude
552.92 km
Speed
7.585 km/s
True Right ascension
13h 24m 51s
True Declination
0° 00' 00"
Sunlit
Object was in daylight at epoch
Visualization orbit readout
Latitude
Unknown
Longitude
Unknown
Altitude
Unknown
Speed
Unknown
Apparent Right ascension
Unknown
Apparent Declination
Unknown
Sunlit
N/A
Visualization observer readout
Local Sidereal Time
03:23:49
Azimuth
Unknown
Elevation
Unknown
Doppler factor
Unknown
Orbital elements
Apogee altitude
548.138 km
Perigee altitude
544.804 km
Semi-major axis
6,924.608 km
Eccentricity
0.00024
Inclination
97.6019°
RAAN
201.2157°
Arg. of periapsis
103.1948°
True anomaly
256.92783°
Mean anomaly
256.9547°
Eccentric anomaly
256.94127°
Mean motion
3.76661 °/min
Orbital period
95.58 mins
BSTAR
0.0017535
Loading maneuver chart data...
Computing Atmospheric mass density...
Loading historical data...
Loading historical data...
Loading historical data...
Loading historical data...
Loading historical data...
Loading historical data...
Loading historical data...

Documentation

Showing up to 5 results
|